Orbital Elements
Epoch 2003 July 20.0 TT = JDT 2452840.5
T 2003 July 10.84758 TT Kobayashi
q 1.0630199 (2000.0) P Q
n 0.20290915 Peri. 188.74167 -0.26990879 +0.87808941
a 2.8681485 Node 66.40774 -0.85531838 -0.03017958
e 0.6293707 Incl. 25.54003 -0.44224396 -0.47754390
P 4.86
From 304 observations 2003 May 23-2013 Sept. 25, mean residual 0".7.
Nongravitational parameters A1 = +0.00, A2 = +0.0018.
|